Total_Precipitation_Accumulation
0.27 0.33 0.30 0.19 0.11 0.06 0.06 0.07 0.10 0.10 0.09 0.11 0.19 0.21 0.14 0.12 0.11 0.15 0.20 0.17 0.13 0.10 0.08 0.08 0.09 0.09 0.11 0.14 0.19 0.24 0.28 0.34 0.42 0.51 0.62 0.74 0.81 0.85
0.32 0.34 0.35 0.32 0.27 0.19 0.13 0.10 0.10 0.11 0.14 0.13 0.21 0.27 0.26 0.15 0.15 0.20 0.15 0.12 0.11 0.11 0.08 0.07 0.08 0.08 0.07 0.07 0.11 0.15 0.17 0.20 0.26 0.33 0.38 0.44 0.49 0.58
0.55 0.48 0.42 0.42 0.39 0.32 0.26 0.19 0.14 0.15 0.19 0.24 0.28 0.32 0.32 0.26 0.24 0.21 0.12 0.09 0.09 0.12 0.10 0.08 0.07 0.07 0.08 0.06 0.05 0.06 0.09 0.11 0.13 0.16 0.20 0.25 0.27 0.29
0.65 0.68 0.60 0.52 0.46 0.38 0.32 0.28 0.24 0.23 0.26 0.32 0.35 0.35 0.30 0.29 0.27 0.17 0.11 0.08 0.07 0.09 0.09 0.08 0.07 0.06 0.07 0.07 0.06 0.04 0.04 0.04 0.05 0.07 0.09 0.12 0.17 0.21
0.39 0.59 0.69 0.66 0.54 0.46 0.38 0.33 0.30 0.28 0.27 0.29 0.35 0.40 0.39 0.31 0.22 0.12 0.09 0.08 0.05 0.07 0.08 0.08 0.07 0.05 0.05 0.04 0.04 0.03 0.02 0.02 0.02 0.03 0.04 0.05 0.07 0.09
0.15 0.28 0.47 0.63 0.62 0.54 0.46 0.39 0.37 0.36 0.33 0.32 0.36 0.41 0.44 0.39 0.24 0.11 0.10 0.09 0.06 0.05 0.05 0.05 0.05 0.04 0.03 0.02 0.01 0.02 0.01 0.01 0.01 0.01 0.02 0.03 0.03 0.03
0.11 0.12 0.18 0.32 0.48 0.55 0.51 0.45 0.41 0.39 0.39 0.36 0.38 0.43 0.46 0.43 0.29 0.15 0.08 0.07 0.07 0.05 0.03 0.03 0.02 0.02 0.01 0.01 0.01 0.01 0.01 0.01 0.01 0.01 0.01 0.01 0.01 0.02
0.22 0.18 0.14 0.13 0.22 0.34 0.44 0.47 0.45 0.40 0.39 0.39 0.41 0.47 0.50 0.44 0.36 0.19 0.10 0.06 0.08 0.07 0.03 0.03 0.02 0.01 0.01 0.00 0.01 0.01 0.01 0.00 0.00 0.00 0.00 0.00 0.00 0.01
0.34 0.31 0.19 0.10 0.12 0.16 0.24 0.33 0.37 0.34 0.32 0.35 0.39 0.48 0.62 0.63 0.51 0.28 0.15 0.13 0.11 0.10 0.05 0.03 0.02 0.01 0.00 0.00 0.01 0.00 0.00 0.00 0.00 0.00 0.00 0.00 0.00 0.00
0.30 0.35 0.27 0.21 0.18 0.18 0.16 0.17 0.21 0.23 0.22 0.22 0.28 0.41 0.58 0.72 0.66 0.50 0.36 0.28 0.24 0.17 0.08 0.05 0.02 0.01 0.01 0.00 0.00 0.00 0.00 0.00 0.00 0.00 0.00 0.00 0.00 0.00
0.25 0.28 0.29 0.25 0.19 0.14 0.15 0.13 0.13 0.15 0.18 0.19 0.22 0.35 0.47 0.59 0.66 0.57 0.39 0.28 0.26 0.19 0.07 0.04 0.03 0.02 0.01 0.00 0.00 0.00 0.00 0.00 0.00 0.00 0.00 0.00 0.00 0.00
0.30 0.33 0.35 0.32 0.22 0.12 0.13 0.14 0.11 0.11 0.12 0.14 0.16 0.22 0.30 0.36 0.46 0.46 0.31 0.19 0.17 0.14 0.06 0.02 0.02 0.02 0.02 0.01 0.00 0.00 0.00 0.00 0.00 0.00 0.00 0.00 0.00 0.00
0.28 0.29 0.35 0.31 0.22 0.13 0.12 0.13 0.11 0.10 0.12 0.13 0.15 0.19 0.25 0.31 0.34 0.41 0.36 0.21 0.14 0.09 0.04 0.02 0.01 0.01 0.01 0.02 0.02 0.01 0.00 0.00 0.00 0.00 0.00 0.00 0.00 0.00
0.38 0.37 0.39 0.40 0.26 0.18 0.15 0.14 0.08 0.06 0.11 0.16 0.18 0.19 0.21 0.24 0.28 0.35 0.36 0.29 0.18 0.12 0.07 0.03 0.02 0.01 0.01 0.01 0.01 0.01 0.01 0.00 0.00 0.00 0.00 0.00 0.00 0.00
0.41 0.52 0.52 0.49 0.38 0.28 0.23 0.20 0.11 0.07 0.09 0.13 0.16 0.17 0.18 0.21 0.25 0.28 0.27 0.22 0.19 0.14 0.09 0.05 0.02 0.01 0.01 0.01 0.01 0.01 0.00 0.00 0.00 0.00 0.00 0.00 0.00 0.00
0.30 0.45 0.55 0.61 0.56 0.44 0.36 0.30 0.19 0.12 0.11 0.13 0.16 0.20 0.23 0.23 0.23 0.17 0.13 0.11 0.12 0.11 0.07 0.04 0.02 0.01 0.00 0.00 0.00 0.00 0.00 0.00 0.00 0.00 0.00 0.00 0.00 0.00
0.22 0.45 0.58 0.67 0.69 0.63 0.53 0.44 0.33 0.23 0.19 0.19 0.19 0.21 0.23 0.23 0.20 0.15 0.10 0.06 0.04 0.04 0.04 0.03 0.02 0.01 0.01 0.00 0.00 0.00 0.00 0.00 0.00 0.00 0.00 0.00 0.00 0.00
0.22 0.44 0.58 0.64 0.66 0.70 0.68 0.61 0.46 0.33 0.27 0.26 0.23 0.22 0.23 0.20 0.16 0.12 0.09 0.07 0.04 0.02 0.02 0.01 0.02 0.02 0.01 0.00 0.00 0.00 0.00 0.00 0.00 0.00 0.00 0.00 0.00 0.00
0.24 0.35 0.41 0.47 0.52 0.64 0.72 0.71 0.54 0.40 0.40 0.38 0.32 0.28 0.25 0.21 0.14 0.11 0.08 0.07 0.05 0.03 0.02 0.01 0.01 0.01 0.01 0.01 0.00 0.00 0.00 0.00 0.00 0.00 0.00 0.00 0.00 0.00
0.20 0.24 0.26 0.32 0.39 0.55 0.67 0.72 0.62 0.49 0.46 0.48 0.43 0.35 0.29 0.22 0.15 0.10 0.07 0.05 0.04 0.03 0.02 0.02 0.01 0.01 0.01 0.00 0.00 0.00 0.00 0.00 0.00 0.00 0.00 0.00 0.00 0.00
0.14 0.15 0.16 0.23 0.32 0.47 0.60 0.67 0.65 0.56 0.49 0.50 0.48 0.40 0.33 0.25 0.17 0.11 0.07 0.06 0.04 0.03 0.02 0.02 0.01 0.00 0.00 0.00 0.00 0.00 0.00 0.00 0.00 0.00 0.00 0.00 0.00 0.00
0.14 0.12 0.12 0.17 0.29 0.44 0.56 0.61 0.61 0.57 0.52 0.50 0.46 0.39 0.32 0.27 0.19 0.13 0.08 0.05 0.03 0.02 0.02 0.03 0.01 0.00 0.00 0.00 0.00 0.00 0.00 0.00 0.00 0.00 0.00 0.00 0.00 0.00
0.13 0.10 0.11 0.15 0.25 0.39 0.48 0.52 0.52 0.51 0.48 0.46 0.42 0.36 0.30 0.27 0.23 0.15 0.09 0.05 0.03 0.03 0.03 0.03 0.01 0.01 0.00 0.00 0.00 0.00 0.00 0.00 0.00 0.00 0.00 0.00 0.00 0.00